Hourly Weather Kivachino

Today, 30 July, Friday

Time Temperature Precipitation Wind Pressure Humidity
00:00 +20°C° 0 mm 2 mps 742 mmHg 71%
01:00 +19°C° 0 mm 2 mps 742 mmHg 74%
02:00 +18°C° 0 mm 3 mps 742 mmHg 77%
03:00 +18°C° 0 mm 2 mps 742 mmHg 77%
04:00 +17°C° 0 mm 2 mps 742 mmHg 77%
05:00 +17°C° 0 mm 2 mps 742 mmHg 77%
06:00 +18°C° 0 mm 2 mps 743 mmHg 75%
07:00 +19°C° 0 mm 2 mps 743 mmHg 72%
08:00 +20°C° 0 mm 2 mps 743 mmHg 69%
09:00 +21°C° 0 mm 3 mps 743 mmHg 63%
10:00 +23°C° 0 mm 4 mps 743 mmHg 56%
11:00 +25°C° 0 mm 4 mps 742 mmHg 50%
12:00 +25°C° 0 mm 4 mps 742 mmHg 49%
13:00 +26°C° 0 mm 4 mps 742 mmHg 47%
14:00 +26°C° 0 mm 5 mps 742 mmHg 46%
15:00 +26°C° 0 mm 5 mps 741 mmHg 47%
16:00 +26°C° 0 mm 4 mps 741 mmHg 47%
17:00 +26°C° 0 mm 4 mps 741 mmHg 48%
18:00 +23°C° 0 mm 4 mps 741 mmHg 54%
19:00 +22°C° 0 mm 3 mps 741 mmHg 59%
20:00 +21°C° 0 mm 2 mps 741 mmHg 65%
21:00 +20°C° 0 mm 2 mps 741 mmHg 66%
22:00 +19°C° 0 mm 2 mps 741 mmHg 67%
23:00 +19°C° 0 mm 2 mps 741 mmHg 68%

Tomorrow, 31 July, Saturday

Time Temperature Precipitation Wind Pressure Humidity
00:00 +18°C° 0 mm 2 mps 741 mmHg 69%
01:00 +18°C° 0 mm 2 mps 741 mmHg 71%
02:00 +18°C° 0 mm 3 mps 741 mmHg 72%
03:00 +17°C° 0 mm 2 mps 741 mmHg 74%
04:00 +17°C° 0 mm 2 mps 741 mmHg 76%
05:00 +16°C° 0 mm 2 mps 741 mmHg 77%
06:00 +18°C° 0 mm 2 mps 741 mmHg 72%
07:00 +20°C° 0 mm 2 mps 741 mmHg 67%
08:00 +23°C° 0 mm 2 mps 741 mmHg 62%
09:00 +24°C° 0 mm 2 mps 741 mmHg 56%
10:00 +26°C° 0 mm 2 mps 741 mmHg 50%
11:00 +27°C° 0 mm 3 mps 741 mmHg 45%
12:00 +28°C° 0 mm 3 mps 741 mmHg 43%
13:00 +29°C° 0 mm 3 mps 741 mmHg 41%
14:00 +30°C° 0 mm 2 mps 741 mmHg 39%
15:00 +30°C° 0.2 mm 3 mps 740 mmHg 42%
16:00 +29°C° 0.2 mm 3 mps 740 mmHg 45%
17:00 +29°C° 0.2 mm 3 mps 740 mmHg 48%
18:00 +26°C° 2.9 mm 3 mps 740 mmHg 64%
19:00 +22°C° 2.9 mm 3 mps 740 mmHg 80%
20:00 +19°C° 2.9 mm 3 mps 740 mmHg 96%
21:00 +19°C° 0.5 mm 3 mps 740 mmHg 96%
22:00 +19°C° 0.5 mm 2 mps 740 mmHg 96%
23:00 +19°C° 0.5 mm 2 mps 741 mmHg 96%

Day after tomorrow, 1 August, Sunday

Time Temperature Precipitation Wind Pressure Humidity
00:00 +18°C° 0 mm 2 mps 741 mmHg 96%
01:00 +18°C° 0 mm 2 mps 741 mmHg 96%
02:00 +18°C° 0 mm 3 mps 740 mmHg 96%
03:00 +17°C° 0 mm 3 mps 740 mmHg 96%
04:00 +17°C° 0 mm 3 mps 740 mmHg 96%
05:00 +16°C° 0 mm 3 mps 740 mmHg 97%
06:00 +18°C° 0 mm 3 mps 741 mmHg 90%
07:00 +19°C° 0 mm 2 mps 741 mmHg 83%
08:00 +20°C° 0 mm 2 mps 742 mmHg 76%
09:00 +23°C° 0 mm 2 mps 742 mmHg 67%
10:00 +24°C° 0 mm 2 mps 742 mmHg 58%
11:00 +26°C° 0 mm 2 mps 742 mmHg 49%
12:00 +26°C° 0 mm 2 mps 742 mmHg 47%
13:00 +27°C° 0 mm 3 mps 742 mmHg 46%
14:00 +27°C° 0 mm 3 mps 741 mmHg 45%
15:00 +27°C° 0 mm 2 mps 741 mmHg 50%
16:00 +27°C° 0 mm 2 mps 741 mmHg 54%
17:00 +26°C° 0 mm 1 mps 741 mmHg 59%
18:00 +25°C° 0 mm 2 mps 740 mmHg 64%
19:00 +24°C° 0 mm 2 mps 740 mmHg 69%
20:00 +21°C° 0 mm 2 mps 739 mmHg 73%
21:00 +20°C° 1.8 mm 2 mps 740 mmHg 80%
22:00 +19°C° 1.8 mm 2 mps 740 mmHg 88%
23:00 +18°C° 1.8 mm 2 mps 740 mmHg 95%

2 August, Monday

Time Temperature Precipitation Wind Pressure Humidity
00:00 +18°C° 0.7 mm 2 mps 739 mmHg 95%
01:00 +18°C° 0.7 mm 2 mps 739 mmHg 95%
02:00 +17°C° 0.7 mm 2 mps 739 mmHg 95%
03:00 +17°C° 0.1 mm 2 mps 739 mmHg 96%
04:00 +17°C° 0.1 mm 2 mps 738 mmHg 96%
05:00 +16°C° 0.1 mm 3 mps 738 mmHg 97%
06:00 +16°C° 0.8 mm 3 mps 738 mmHg 96%
07:00 +16°C° 0.8 mm 3 mps 739 mmHg 96%
08:00 +15°C° 0.8 mm 4 mps 739 mmHg 96%
09:00 +15°C° 0.6 mm 4 mps 740 mmHg 96%
10:00 +15°C° 0.6 mm 4 mps 740 mmHg 96%
11:00 +14°C° 0.6 mm 4 mps 740 mmHg 96%
12:00 +17°C° 0.2 mm 4 mps 741 mmHg 86%
13:00 +19°C° 0.2 mm 4 mps 741 mmHg 75%
14:00 +21°C° 0.2 mm 5 mps 741 mmHg 65%
15:00 +21°C° 0.1 mm 4 mps 741 mmHg 64%
16:00 +21°C° 0.1 mm 4 mps 742 mmHg 64%
17:00 +22°C° 0.1 mm 3 mps 742 mmHg 63%
18:00 +20°C° 0.1 mm 3 mps 742 mmHg 68%
19:00 +19°C° 0.1 mm 3 mps 742 mmHg 73%
20:00 +18°C° 0.1 mm 3 mps 742 mmHg 78%
21:00 +18°C° 0 mm 3 mps 742 mmHg 82%
22:00 +17°C° 0 mm 3 mps 742 mmHg 86%
23:00 +16°C° 0 mm 3 mps 743 mmHg 90%

3 August, Tuesday

Time Temperature Precipitation Wind Pressure Humidity
00:00 +14°C° 0 mm 3 mps 743 mmHg 91%
01:00 +14°C° 0 mm 3 mps 743 mmHg 93%
02:00 +14°C° 0 mm 2 mps 743 mmHg 94%
03:00 +13°C° 0 mm 3 mps 743 mmHg 94%
04:00 +13°C° 0 mm 3 mps 744 mmHg 94%
05:00 +12°C° 0 mm 3 mps 744 mmHg 93%
06:00 +14°C° 0 mm 3 mps 744 mmHg 86%
07:00 +15°C° 0 mm 4 mps 744 mmHg 78%
08:00 +16°C° 0 mm 5 mps 744 mmHg 71%
09:00 +19°C° 0 mm 5 mps 745 mmHg 64%
10:00 +20°C° 0 mm 6 mps 745 mmHg 57%
11:00 +21°C° 0 mm 6 mps 745 mmHg 50%
12:00 +22°C° 0 mm 6 mps 745 mmHg 50%
13:00 +22°C° 0 mm 6 mps 745 mmHg 49%
14:00 +22°C° 0 mm 5 mps 745 mmHg 48%
15:00 +22°C° 0 mm 5 mps 745 mmHg 51%
16:00 +22°C° 0 mm 4 mps 745 mmHg 54%
17:00 +21°C° 0 mm 3 mps 745 mmHg 57%
18:00 +20°C° 0 mm 2 mps 745 mmHg 61%
19:00 +19°C° 0 mm 2 mps 746 mmHg 66%
20:00 +19°C° 0 mm 1 mps 746 mmHg 70%
21:00 +18°C° 0 mm 1 mps 746 mmHg 73%
22:00 +16°C° 0 mm 1 mps 746 mmHg 76%
23:00 +15°C° 0 mm 1 mps 746 mmHg 78%

4 August, Wednesday

Time Temperature Precipitation Wind Pressure Humidity
00:00 +15°C° 0 mm 1 mps 747 mmHg 79%
01:00 +14°C° 0 mm 0 mps 747 mmHg 81%
02:00 +13°C° 0 mm 0 mps 747 mmHg 82%
03:00 +13°C° 0 mm 0 mps 747 mmHg 83%
04:00 +13°C° 0 mm 0 mps 747 mmHg 84%
05:00 +13°C° 0 mm 0 mps 747 mmHg 84%
06:00 +15°C° 0 mm 1 mps 747 mmHg 78%
07:00 +18°C° 0 mm 1 mps 747 mmHg 72%
08:00 +20°C° 0 mm 1 mps 748 mmHg 66%
09:00 +21°C° 0 mm 1 mps 747 mmHg 60%
10:00 +23°C° 0 mm 1 mps 747 mmHg 54%
11:00 +24°C° 0 mm 2 mps 747 mmHg 48%
12:00 +25°C° 0 mm 2 mps 747 mmHg 46%
13:00 +25°C° 0 mm 2 mps 747 mmHg 44%
14:00 +26°C° 0 mm 2 mps 747 mmHg 42%
15:00 +26°C° 0 mm 2 mps 747 mmHg 46%
16:00 +25°C° 0 mm 2 mps 746 mmHg 49%
17:00 +25°C° 0 mm 2 mps 746 mmHg 53%
18:00 +23°C° 0 mm 2 mps 746 mmHg 58%
19:00 +21°C° 0 mm 2 mps 746 mmHg 63%
20:00 +20°C° 0 mm 2 mps 746 mmHg 69%
21:00 +19°C° 0 mm 2 mps 746 mmHg 70%
22:00 +19°C° 0 mm 3 mps 746 mmHg 70%
23:00 +18°C° 0 mm 3 mps 746 mmHg 71%
Show more